FW0225 Weather Reports


Display with metric or nautical units.
time (UTC)temp
F
wind
direction
speed
MPH
gust
MPH
rain 1hr
in
rain 24hr
in
rain mn
in
humidity
%
barometer
mb
20260509101020 76 196 6.0 9.0 0.00 0.00 0.00 52 1016.0
20260509100542 76 214 4.0 10.0 0.00 0.00 0.00 53 1015.9
20260509100012 75 219 2.0 9.0 0.00 0.00 0.00 52 1015.9
20260509095517 75 203 4.0 9.0 0.00 0.00 0.00 52 1015.9
20260509095017 75 204 3.0 8.0 0.00 0.00 0.00 56 1015.9
20260509094521 75 196 2.0 10.0 0.00 0.00 0.00 54 1015.9
20260509094041 75 204 4.0 8.0 0.00 0.00 0.00 54 1015.9
20260509093522 75 205 4.0 10.0 0.00 0.00 0.00 57 1015.9
20260509093013 75 204 6.0 10.0 0.00 0.00 0.00 56 1015.9
20260509092516 75 202 5.0 8.0 0.00 0.00 0.00 55 1015.9
20260509092015 75 205 3.0 6.0 0.00 0.00 0.00 58 1015.9
20260509091517 75 200 3.0 7.0 0.00 0.00 0.00 61 1015.9
20260509091037 75 219 4.0 7.0 0.00 0.00 0.00 60 1015.9
20260509090520 75 138 2.0 4.0 0.00 0.00 0.00 60 1015.8
20260509090034 75 101 2.0 3.0 0.00 0.00 0.00 59 1015.8
20260509085517 74 78 2.0 3.0 0.00 0.00 0.00 65 1015.8
20260509085018 73 63 1.0 3.0 0.00 0.00 0.00 62 1015.9
20260509084542 72 60 1.0 4.0 0.00 0.00 0.00 61 1016.0
20260509084021 72 53 2.0 4.0 0.00 0.00 0.00 63 1016.0
20260509083521 71 51 1.0 4.0 0.00 0.00 0.00 62 1016.0
20260509083016 71 50 2.0 4.0 0.00 0.00 0.00 65 1016.0
20260509082518 70 44 3.0 5.0 0.00 0.00 0.00 66 1015.9
20260509082017 70 49 3.0 5.0 0.00 0.00 0.00 66 1016.0
20260509081519 70 48 3.0 5.0 0.00 0.00 0.00 67 1016.1
20260509081020 69 49 3.0 6.0 0.00 0.00 0.00 67 1016.1
20260509080524 69 64 2.0 6.0 0.00 0.00 0.00 67 1016.2
20260509080016 69 54 3.0 5.0 0.00 0.00 0.00 67 1016.2
20260509075519 69 56 3.0 6.0 0.00 0.00 0.00 69 1016.3
20260509075016 68 59 3.0 6.0 0.00 0.00 0.00 69 1016.3
20260509074539 68 65 1.0 4.0 0.00 0.00 0.00 70 1016.4
20260509074019 67 66 2.0 5.0 0.00 0.00 0.00 70 1016.4
20260509073542 67 69 2.0 4.0 0.00 0.00 0.00 71 1016.5
20260509073056 66 74 1.0 3.0 0.00 0.00 0.00 71 1016.5
20260509073014 66 74 1.0 3.0 0.00 0.00 0.00 71 1016.5
20260509072515 66 74 1.0 5.0 0.00 0.00 0.00 72 1016.6
20260509072014 65 74 3.0 5.0 0.00 0.00 0.00 73 1016.6
20260509071536 65 83 2.0 4.0 0.00 0.00 0.00 74 1016.6
20260509071016 64 88 2.0 7.0 0.00 0.00 0.00 74 1016.6
20260509070520 64 89 3.0 7.0 0.00 0.00 0.00 74 1016.7
20260509070031 64 97 4.0 6.0 0.00 0.00 0.00 75 1016.7
20260509065534 64 108 3.0 6.0 0.00 0.00 0.00 76 1016.7
20260509065013 64 116 3.0 6.0 0.00 0.00 0.00 76 1016.7
20260509064515 63 125 2.0 4.0 0.00 0.00 0.00 77 1016.7
20260509064019 63 126 1.0 3.0 0.00 0.00 0.00 79 1016.7
20260509063523 62 126 2.0 3.0 0.00 0.00 0.00 80 1016.8
20260509063015 61 126 2.0 4.0 0.00 0.00 0.00 81 1016.7
20260509062538 61 126 3.0 5.0 0.00 0.00 0.00 82 1016.7
20260509062019 61 128 3.0 5.0 0.00 0.00 0.00 82 1016.8
20260509061524 60 134 3.0 4.0 0.00 0.00 0.00 82 1016.9
20260509061025 60 148 2.0 5.0 0.00 0.00 0.00 83 1016.8
20260509060528 60 162 4.0 5.0 0.00 0.00 0.00 84 1016.9
20260509060019 59 183 3.0 5.0 0.00 0.00 0.00 84 1016.9
20260509055522 59 209 2.0 5.0 0.00 0.00 0.00 84 1017.0
20260509055020 59 213 3.0 5.0 0.00 0.00 0.00 85 1017.0
20260509054522 59 218 2.0 4.0 0.00 0.00 0.00 85 1017.1
20260509054042 58 219 2.0 4.0 0.00 0.00 0.00 86 1017.0
20260509053523 58 219 1.0 3.0 0.00 0.00 0.00 88 1017.0
20260509053036 57 220 1.0 5.0 0.00 0.00 0.00 88 1017.0
20260509052520 57 220 3.0 5.0 0.00 0.00 0.00 89 1017.0
20260509052025 56 221 3.0 4.0 0.00 0.00 0.00 91 1017.0
20260509051530 56 221 2.0 4.0 0.00 0.00 0.00 91 1017.0
20260509051031 55 221 3.0 4.0 0.00 0.00 0.00 92 1016.9
20260509050534 55 221 2.0 3.0 0.00 0.00 0.00 93 1016.9
20260509050026 54 221 0.0 2.0 0.00 0.00 0.00 94 1016.8
20260509045531 54 221 0.0 2.0 0.00 0.00 0.00 94 1016.8
20260509045013 53 221 1.0 2.0 0.00 0.00 0.00 94 1016.8
20260509044537 53 221 1.0 2.0 0.00 0.00 0.00 95 1016.8
20260509044016 52 221 0.0 2.0 0.00 0.00 0.00 94 1016.8
20260509043520 51 221 0.0 1.0 0.00 0.00 0.00 94 1016.8
20260509043013 51 221 0.0 1.0 0.00 0.00 0.00 93 1016.8
20260509042517 51 221 0.0 0.0 0.00 0.00 0.00 93 1016.8
20260509042019 51 221 0.0 0.0 0.00 0.00 0.00 93 1016.8
20260509041520 51 221 0.0 0.0 0.00 0.00 0.00 93 1016.7
20260509041021 51 221 0.0 0.0 0.00 0.00 0.00 92 1016.7
20260509040529 51 221 0.0 0.0 0.00 0.00 0.00 92 1016.6
20260509040021 51 221 0.0 0.0 0.00 0.00 0.00 92 1016.6
20260509035524 51 221 0.0 0.0 0.00 0.00 0.00 92 1016.5
20260509035025 51 221 0.0 0.0 0.00 0.00 0.00 92 1016.5
20260509034529 51 221 0.0 0.0 0.00 0.00 0.00 92 1016.5
20260509034047 51 221 0.0 0.0 0.00 0.00 0.00 92 1016.5
20260509033548 51 221 0.0 1.0 0.00 0.00 0.00 92 1016.6
20260509033019 51 221 0.0 1.0 0.00 0.00 0.00 92 1016.5
20260509032521 51 221 0.0 1.0 0.00 0.00 0.00 92 1016.5
20260509032040 51 221 0.0 1.0 0.00 0.00 0.00 92 1016.5
20260509031522 51 221 0.0 1.0 0.00 0.00 0.00 92 1016.5
20260509031023 52 221 0.0 1.0 0.00 0.00 0.00 92 1016.5
20260509030547 52 221 0.0 1.0 0.00 0.00 0.00 92 1016.5
20260509030017 52 221 1.0 1.0 0.00 0.00 0.00 92 1016.5
20260509025520 52 221 0.0 0.0 0.00 0.00 0.00 92 1016.6
20260509025021 52 221 0.0 0.0 0.00 0.00 0.00 92 1016.5
20260509024524 52 221 0.0 0.0 0.00 0.00 0.00 92 1016.5
20260509024024 53 221 0.0 2.0 0.00 0.00 0.00 92 1016.5
20260509023512 53 221 0.0 2.0 0.00 0.00 0.00 92 1016.5
20260509023025 53 221 1.0 3.0 0.00 0.00 0.00 92 1016.5
20260509022528 53 221 1.0 3.0 0.00 0.00 0.00 92 1016.4
20260509022026 53 221 0.0 2.0 0.00 0.00 0.00 92 1016.4
20260509021531 53 221 0.0 1.0 0.00 0.00 0.00 92 1016.4
20260509021032 53 221 0.0 2.0 0.00 0.00 0.00 92 1016.3
20260509020536 53 221 0.0 2.0 0.00 0.00 0.00 92 1016.4
20260509020028 53 221 1.0 2.0 0.00 0.00 0.00 92 1016.3
20260509015532 54 221 0.0 1.0 0.00 0.00 0.00 92 1016.3
20260509015013 53 221 0.0 2.0 0.00 0.00 0.00 92 1016.4
20260509014517 53 221 1.0 2.0 0.00 0.00 0.00 91 1016.3
20260509014018 54 221 2.0 4.0 0.00 0.00 0.00 92 1016.3
20260509013523 54 221 1.0 4.0 0.00 0.00 0.00 92 1016.3
20260509013014 54 221 1.0 3.0 0.00 0.00 0.00 92 1016.3
20260509012516 54 221 0.0 2.0 0.00 0.00 0.00 91 1016.3
20260509012019 54 221 0.0 3.0 0.00 0.00 0.00 91 1016.3
20260509011521 54 221 2.0 3.0 0.00 0.00 0.00 91 1016.3
20260509011018 54 221 1.0 3.0 0.00 0.00 0.00 91 1016.3
20260509010521 54 221 1.0 2.0 0.00 0.00 0.00 91 1016.4
20260509010032 54 221 0.0 2.0 0.00 0.00 0.00 91 1016.4
20260509005513 54 221 0.0 2.0 0.00 0.00 0.00 91 1016.4
20260509005054 54 221 0.0 2.0 0.00 0.00 0.00 91 1016.4
20260509004515 54 221 0.0 2.0 0.00 0.00 0.00 90 1016.4
20260509004013 54 221 1.0 2.0 0.00 0.00 0.00 90 1016.4
20260509003516 54 221 1.0 2.0 0.00 0.00 0.00 90 1016.5
20260509003027 54 221 1.0 2.0 0.00 0.00 0.00 90 1016.5
20260509002530 55 221 0.0 0.0 0.00 0.00 0.00 90 1016.5
20260509002029 55 221 0.0 1.0 0.00 0.00 0.00 90 1016.5
20260509001553 55 221 0.0 1.0 0.00 0.00 0.00 90 1016.5
20260509001032 55 221 0.0 1.0 0.00 0.00 0.00 90 1016.5
20260509000514 55 221 0.0 1.0 0.00 0.00 0.00 89 1016.6
20260509000026 55 221 0.0 0.0 0.00 0.00 0.00 89 1016.6
20260508235514 55 221 0.0 0.0 0.00 0.00 0.00 89 1016.6
20260508235015 55 221 0.0 1.0 0.00 0.00 0.00 89 1016.6
20260508234518 55 221 0.0 3.0 0.00 0.00 0.00 89 1016.6
20260508234017 55 221 1.0 3.0 0.00 0.00 0.00 89 1016.7
20260508233526 56 221 1.0 4.0 0.00 0.00 0.00 89 1016.7
20260508233017 56 221 1.0 4.0 0.00 0.00 0.00 88 1016.7
20260508232521 56 221 0.0 1.0 0.00 0.00 0.00 88 1016.8
20260508232022 56 221 0.0 1.0 0.00 0.00 0.00 88 1016.7
20260508231526 56 221 0.0 1.0 0.00 0.00 0.00 88 1016.7
20260508231025 56 221 0.0 0.0 0.00 0.00 0.00 88 1016.7
20260508230550 56 221 0.0 0.0 0.00 0.00 0.00 88 1016.7
20260508230022 56 221 0.0 1.0 0.00 0.00 0.00 88 1016.8
20260508225525 57 221 0.0 1.0 0.00 0.00 0.00 88 1016.8
20260508225025 57 221 0.0 1.0 0.00 0.00 0.00 88 1016.7
20260508224528 57 221 0.0 0.0 0.00 0.00 0.00 88 1016.7
20260508224029 57 221 0.0 0.0 0.00 0.00 0.00 88 1016.6
20260508223536 57 221 0.0 0.0 0.00 0.00 0.00 88 1016.7
20260508223025 57 221 0.0 2.0 0.00 0.00 0.00 88 1016.7
20260508222530 57 221 0.0 2.0 0.00 0.00 0.00 88 1016.6
20260508222030 57 221 0.0 0.0 0.00 0.00 0.00 88 1016.6
20260508221535 57 221 0.0 0.0 0.00 0.00 0.00 87 1016.7
20260508221035 57 221 0.0 0.0 0.00 0.00 0.00 87 1016.6
20260508220516 57 221 0.0 1.0 0.00 0.00 0.00 87 1016.6
20260508220028 57 221 0.0 2.0 0.00 0.00 0.00 87 1016.6
20260508215528 58 221 0.0 2.0 0.00 0.00 0.00 87 1016.6
20260508215027 58 221 0.0 2.0 0.00 0.00 0.00 87 1016.5
20260508214530 58 221 1.0 2.0 0.00 0.00 0.00 87 1016.5
20260508214029 58 221 0.0 1.0 0.00 0.00 0.00 87 1016.4
20260508213533 58 221 0.0 0.0 0.00 0.00 0.00 87 1016.4
20260508213022 58 221 0.0 0.0 0.00 0.00 0.00 87 1016.4
20260508212524 58 221 0.0 0.0 0.00 0.00 0.00 87 1016.4
20260508212023 58 221 0.0 0.0 0.00 0.00 0.00 86 1016.3
20260508211526 58 221 0.0 1.0 0.00 0.00 0.00 86 1016.3
20260508211046 58 221 0.0 1.0 0.00 0.00 0.00 86 1016.3
20260508210526 58 221 0.0 0.0 0.00 0.00 0.00 86 1016.3
20260508210017 58 221 0.0 0.0 0.00 0.00 0.00 86 1016.2
20260508205541 58 221 0.0 0.0 0.00 0.00 0.00 86 1016.2
20260508205025 58 221 0.0 0.0 0.00 0.00 0.00 86 1016.2
20260508204527 58 221 0.0 0.0 0.00 0.00 0.00 86 1016.1
20260508204025 59 221 0.0 0.0 0.00 0.00 0.00 85 1016.1
20260508203530 59 221 0.0 0.0 0.00 0.00 0.00 85 1016.1
20260508203042 59 221 0.0 0.0 0.00 0.00 0.00 85 1016.0
20260508202525 59 221 0.0 0.0 0.00 0.00 0.00 85 1016.1
20260508202027 59 221 0.0 0.0 0.00 0.00 0.00 85 1016.0
20260508201530 59 221 0.0 0.0 0.00 0.00 0.00 84 1016.0
20260508201028 59 221 0.0 1.0 0.00 0.00 0.00 84 1015.9
20260508200523 59 221 0.0 1.0 0.00 0.00 0.00 84 1015.8
20260508200014 59 221 0.0 2.0 0.00 0.00 0.00 84 1015.8
20260508195516 60 221 0.0 1.0 0.00 0.00 0.00 83 1015.7
20260508195036 60 221 0.0 1.0 0.00 0.00 0.00 83 1015.6
20260508194518 60 221 0.0 3.0 0.00 0.00 0.00 83 1015.5
20260508194017 60 221 1.0 3.0 0.00 0.00 0.00 83 1015.4
20260508193523 60 221 0.0 0.0 0.00 0.00 0.00 82 1015.3
20260508193034 60 221 0.0 0.0 0.00 0.00 0.00 83 1015.3
20260508192515 61 221 0.0 0.0 0.00 0.00 0.00 82 1015.2
20260508192015 61 221 0.0 1.0 0.00 0.00 0.00 82 1015.1
20260508191518 61 221 0.0 1.0 0.00 0.00 0.00 82 1015.0
20260508191015 61 221 0.0 0.0 0.00 0.00 0.00 81 1015.0
20260508190538 61 221 0.0 0.0 0.00 0.00 0.00 81 1014.9
20260508190029 62 221 0.0 0.0 0.00 0.00 0.00 81 1014.8
20260508185512 62 221 0.0 0.0 0.00 0.00 0.00 81 1014.7
20260508185012 62 221 0.0 0.0 0.00 0.00 0.00 81 1014.6
20260508184535 62 221 0.0 1.0 0.00 0.00 0.00 81 1014.6
20260508184012 62 221 0.0 1.0 0.00 0.00 0.00 81 1014.5
20260508183516 62 221 1.0 1.0 0.00 0.00 0.00 81 1014.4
20260508183028 62 221 0.0 2.0 0.00 0.00 0.00 81 1014.3
20260508182512 63 221 0.0 1.0 0.00 0.00 0.00 81 1014.2
20260508182012 63 221 0.0 0.0 0.00 0.00 0.00 80 1014.1
20260508181515 63 221 0.0 1.0 0.00 0.00 0.00 80 1014.1
20260508181015 64 221 0.0 1.0 0.00 0.00 0.00 80 1013.9
20260508180539 64 221 0.0 1.0 0.00 0.00 0.00 79 1013.8
20260508180050 64 221 0.0 1.0 0.00 0.00 0.00 79 1013.8
20260508175513 65 221 0.0 1.0 0.00 0.00 0.00 77 1013.7
20260508175011 65 221 0.0 1.0 0.00 0.00 0.00 77 1013.6
20260508174517 65 221 0.0 1.0 0.00 0.00 0.00 76 1013.5
20260508174037 66 221 1.0 1.0 0.00 0.00 0.00 76 1013.5
20260508173540 66 221 0.0 2.0 0.00 0.00 0.00 75 1013.4
20260508173011 66 221 1.0 2.0 0.00 0.00 0.00 74 1013.4
20260508172515 67 221 0.0 1.0 0.00 0.00 0.00 75 1013.3
20260508172016 67 221 0.0 2.0 0.00 0.00 0.00 74 1013.2
20260508171540 67 221 0.0 2.0 0.00 0.00 0.00 75 1013.2
20260508171020 68 221 1.0 1.0 0.00 0.00 0.00 74 1013.1
20260508170524 68 221 0.0 2.0 0.00 0.00 0.00 74 1013.1
20260508170014 68 221 1.0 2.0 0.00 0.00 0.00 73 1013.0
20260508165516 68 221 0.0 2.0 0.00 0.00 0.00 74 1013.0
20260508165018 69 221 1.0 2.0 0.00 0.00 0.00 74 1013.0
20260508164521 69 221 0.0 1.0 0.00 0.00 0.00 74 1013.0
20260508164020 69 221 0.0 2.0 0.00 0.00 0.00 73 1013.0
20260508163522 69 221 1.0 2.0 0.00 0.00 0.00 73 1012.9
20260508163033 69 221 0.0 2.0 0.00 0.00 0.00 72 1012.9
20260508162514 70 221 1.0 3.0 0.00 0.00 0.00 71 1013.0
20260508162032 70 221 1.0 3.0 0.00 0.00 0.00 70 1013.0
20260508161527 70 221 1.0 4.0 0.00 0.00 0.00 66 1013.0
20260508161027 70 221 2.0 4.0 0.00 0.00 0.00 68 1012.9
20260508160550 71 219 2.0 4.0 0.00 0.00 0.00 69 1013.0
20260508160020 71 219 2.0 4.0 0.00 0.00 0.00 63 1013.0
20260508155525 71 219 2.0 4.0 0.00 0.00 0.00 65 1012.9
20260508155027 71 217 1.0 4.0 0.00 0.00 0.00 61 1012.9
20260508154530 72 217 1.0 3.0 0.00 0.00 0.00 66 1012.8
20260508154015 72 217 2.0 3.0 0.00 0.00 0.00 66 1012.8
20260508153539 72 217 2.0 4.0 0.00 0.00 0.00 61 1012.8
20260508153031 72 215 2.0 4.0 0.00 0.00 0.00 63 1012.7
20260508152513 73 214 3.0 4.0 0.00 0.00 0.00 59 1012.7
20260508152013 74 216 1.0 4.0 0.00 0.00 0.00 61 1012.7
20260508151516 74 216 2.0 4.0 0.00 0.00 0.00 58 1012.7
20260508151014 74 214 1.0 4.0 0.00 0.00 0.00 59 1012.7
20260508150516 74 213 3.0 5.0 0.00 0.00 0.00 52 1012.8
20260508150026 75 219 2.0 8.0 0.00 0.00 0.00 52 1012.8
20260508145530 75 206 4.0 8.0 0.00 0.00 0.00 51 1012.9
20260508145030 75 202 4.0 8.0 0.00 0.00 0.00 51 1012.9
20260508144514 76 198 3.0 5.0 0.00 0.00 0.00 51 1012.9
20260508144013 76 211 1.0 5.0 0.00 0.00 0.00 50 1012.9
20260508143516 76 207 1.0 5.0 0.00 0.00 0.00 54 1012.9
20260508143030 76 218 3.0 5.0 0.00 0.00 0.00 51 1013.0
20260508142515 77 271 2.0 6.0 0.00 0.00 0.00 49 1013.0
20260508142015 77 205 2.0 7.0 0.00 0.00 0.00 49 1013.0
20260508141519 77 188 4.0 7.0 0.00 0.00 0.00 48 1013.1
20260508141018 77 198 1.0 4.0 0.00 0.00 0.00 48 1013.1
20260508140520 77 188 3.0 4.0 0.00 0.00 0.00 49 1013.1
20260508140032 77 205 2.0 4.0 0.00 0.00 0.00 44 1013.0
20260508135516 77 207 2.0 5.0 0.00 0.00 0.00 45 1013.1
20260508135034 77 213 2.0 5.0 0.00 0.00 0.00 46 1013.1
20260508134515 77 194 2.0 5.0 0.00 0.00 0.00 44 1013.2
20260508134013 77 196 2.0 4.0 0.00 0.00 0.00 47 1013.3
20260508133517 77 199 1.0 4.0 0.00 0.00 0.00 45 1013.3
20260508133029 77 194 1.0 5.0 0.00 0.00 0.00 45 1013.4
20260508132531 77 184 2.0 4.0 0.00 0.00 0.00 47 1013.5
20260508132051 77 179 2.0 6.0 0.00 0.00 0.00 48 1013.6
20260508131512 76 204 2.0 6.0 0.00 0.00 0.00 46 1013.7
20260508131031 76 194 1.0 4.0 0.00 0.00 0.00 47 1013.7
20260508130517 76 198 1.0 4.0 0.00 0.00 0.00 49 1013.7
20260508130045 75 196 3.0 4.0 0.00 0.00 0.00 48 1013.8
20260508125531 75 197 1.0 4.0 0.00 0.00 0.00 52 1013.8
20260508125030 75 199 2.0 4.0 0.00 0.00 0.00 48 1013.9
20260508124514 75 136 2.0 3.0 0.00 0.00 0.00 50 1014.0
20260508124014 75 146 2.0 3.0 0.00 0.00 0.00 48 1014.0
20260508123538 75 124 1.0 4.0 0.00 0.00 0.00 55 1014.0
20260508123028 75 125 2.0 4.0 0.00 0.00 0.00 53 1014.1
20260508122531 75 191 0.0 4.0 0.00 0.00 0.00 50 1014.2
20260508122031 75 186 2.0 4.0 0.00 0.00 0.00 54 1014.3
20260508121513 75 199 1.0 5.0 0.00 0.00 0.00 52 1014.3
20260508121050 74 203 3.0 5.0 0.00 0.00 0.00 54 1014.4
20260508120513 74 216 3.0 5.0 0.00 0.00 0.00 54 1014.4
20260508120025 74 178 2.0 6.0 0.00 0.00 0.00 55 1014.3
20260508115527 74 140 2.0 4.0 0.00 0.00 0.00 54 1014.3
20260508115027 74 174 2.0 7.0 0.00 0.00 0.00 53 1014.4
20260508114514 74 210 3.0 7.0 0.00 0.00 0.00 52 1014.4
20260508114015 74 214 2.0 9.0 0.00 0.00 0.00 56 1014.5
20260508113518 74 190 4.0 9.0 0.00 0.00 0.00 56 1014.5
20260508113050 74 220 3.0 8.0 0.00 0.00 0.00 54 1014.5
20260508112552 74 192 3.0 8.0 0.00 0.00 0.00 55 1014.5
20260508112030 74 183 1.0 6.0 0.00 0.00 0.00 55 1014.5
20260508111513 74 187 3.0 6.0 0.00 0.00 0.00 56 1014.5
20260508111015 74 178 3.0 7.0 0.00 0.00 0.00 54 1014.5
20260508110520 74 224 2.0 7.0 0.00 0.00 0.00 54 1014.5
20260508110031 74 120 2.0 4.0 0.00 0.00 0.00 56 1014.6
20260508105535 74 130 2.0 6.0 0.00 0.00 0.00 53 1014.6
20260508105013 74 151 1.0 6.0 0.00 0.00 0.00 55 1014.6
20260508104516 74 184 2.0 6.0 0.00 0.00 0.00 56 1014.7
20260508104016 74 175 2.0 7.0 0.00 0.00 0.00 56 1014.7
20260508103519 74 173 3.0 8.0 0.00 0.00 0.00 55 1014.7
20260508103013 73 213 2.0 6.0 0.00 0.00 0.00 53 1014.7
20260508102515 73 196 2.0 6.0 0.00 0.00 0.00 57 1014.7
20260508102035 73 200 1.0 4.0 0.00 0.00 0.00 54 1014.8
20260508101524 73 201 1.0 5.0 0.00 0.00 0.00 53 1014.7